Temp
-7 -7 -6 -6 -8 -7 -7 -7 -7 -7 -6 -6 -6 -6 -6 -5 -5 -4 -4 -4 -4 -4 -4 -4 -4 -4 -4 -4 -4 -4 -4 -5 -5 -5 -5 -6 -6 -6 -6 -6 -6 -6 -7 -7
-6 -6 -7 -7 -6 -5 -6 -6 -6 -7 -6 -6 -6 -7 -7 -6 -5 -5 -4 -4 -4 -4 -4 -4 -4 -4 -4 -4 -4 -4 -4 -5 -5 -5 -5 -6 -6 -6 -6 -6 -7 -7 -7 -7
-6 -6 -7 -7 -7 -7 -6 -6 -6 -6 -7 -6 -5 -5 -6 -6 -5 -5 -4 -4 -4 -4 -4 -4 -4 -4 -4 -4 -4 -4 -4 -5 -4 -5 -5 -5 -6 -6 -6 -7 -7 -7 -7 -7
-6 -7 -7 -6 -6 -7 -7 -7 -7 -7 -6 -7 -6 -6 -6 -6 -4 -4 -5 -4 -4 -5 -4 -3 -4 -4 -4 -4 -4 -4 -4 -4 -4 -5 -5 -5 -5 -6 -6 -7 -7 -7 -7 -8
-4 -7 -7 -6 -6 -6 -7 -7 -7 -7 -7 -7 -7 -6 -6 -5 -5 -4 -4 -4 -4 -4 -4 -3 -3 -4 -4 -4 -4 -4 -4 -4 -5 -5 -5 -5 -5 -6 -7 -7 -7 -7 -8 -8
-5 -7 -7 -5 -7 -7 -8 -7 -7 -7 -7 -6 -6 -6 -5 -5 -5 -4 -4 -4 -4 -4 -4 -3 -3 -4 -4 -4 -4 -4 -4 -4 -5 -5 -5 -6 -6 -6 -6 -7 -7 -7 -8 -8
-6 -6 -6 -7 -8 -8 -8 -7 -7 -7 -7 -5 -6 -6 -5 -5 -5 -5 -4 -4 -3 -4 -3 -3 -4 -4 -4 -4 -4 -4 -4 -4 -4 -5 -6 -6 -6 -6 -7 -7 -8 -8 -8 -8
-5 -5 -5 -6 -6 -8 -8 -7 -8 -6 -5 -5 -6 -6 -5 -5 -5 -4 -4 -4 -3 -3 -3 -4 -4 -4 -4 -4 -4 -4 -4 -4 -4 -5 -5 -6 -6 -7 -7 -8 -8 -8 -8 -8
-5 -5 -5 -6 -6 -7 -8 -6 -8 -6 -6 -7 -6 -5 -5 -5 -5 -4 -4 -4 -3 -3 -3 -3 -3 -4 -4 -4 -4 -4 -4 -4 -4 -5 -5 -6 -7 -8 -8 -8 -8 -8 -8 -8
-5 -5 -6 -6 -6 -7 -8 -7 -7 -6 -6 -6 -6 -6 -6 -5 -5 -5 -5 -4 -4 -3 -3 -3 -3 -4 -4 -3 -3 -4 -4 -4 -5 -5 -6 -6 -8 -8 -8 -8 -9 -8 -8 -8
-6 -5 -6 -6 -6 -6 -7 -8 -7 -6 -6 -6 -6 -6 -6 -6 -5 -5 -5 -4 -5 -4 -3 -3 -4 -4 -4 -4 -4 -4 -4 -5 -5 -6 -6 -7 -8 -8 -8 -9 -9 -8 -8 -9
-5 -5 -6 -6 -6 -6 -7 -7 -7 -7 -6 -7 -6 -6 -6 -6 -6 -5 -5 -5 -4 -4 -4 -4 -4 -4 -4 -4 -5 -5 -4 -5 -5 -6 -7 -8 -8 -8 -9 -9 -9 -8 -8 -9
-6 -5 -6 -7 -7 -7 -7 -7 -7 -7 -6 -6 -6 -5 -6 -6 -5 -5 -5 -5 -5 -5 -5 -5 -4 -4 -4 -4 -4 -4 -5 -5 -6 -6 -7 -8 -8 -8 -8 -9 -9 -8 -8 -9
-7 -6 -5 -6 -5 -6 -7 -6 -6 -6 -6 -5 -5 -6 -6 -5 -5 -5 -6 -5 -5 -4 -4 -5 -4 -5 -5 -5 -5 -5 -5 -6 -6 -7 -8 -8 -8 -9 -9 -9 -9 -9 -9 -9
-8 -6 -6 -6 -6 -6 -7 -6 -6 -5 -5 -5 -5 -6 -5 -5 -5 -5 -6 -5 -5 -5 -5 -5 -4 -4 -5 -5 -5 -5 -6 -6 -7 -8 -8 -9 -9 -9 -9 -8 -8 -9 -9 -9
-8 -6 -7 -6 -7 -7 -7 -8 -7 -6 -5 -5 -5 -6 -5 -6 -6 -6 -6 -5 -5 -6 -6 -5 -5 -4 -4 -4 -5 -5 -6 -7 -8 -8 -9 -9 -9 -9 -9 -9 -8 -9 -9 -9
-8 -7 -7 -7 -7 -7 -7 -6 -7 -6 -6 -5 -5 -5 -6 -6 -6 -6 -6 -6 -6 -6 -6 -4 -4 -4 -4 -4 -5 -5 -6 -7 -7 -8 -8 -9 -8 -9 -9 -9 -9 -9 -9 -9
-7 -8 -7 -7 -8 -7 -5 -6 -5 -6 -6 -6 -5 -5 -6 -6 -6 -6 -6 -6 -6 -6 -6 -4 -5 -5 -4 -4 -4 -5 -5 -6 -7 -8 -8 -8 -9 -9 -9 -9 -8 -9 -9 -9
-6 -8 -8 -8 -8 -6 -7 -7 -6 -5 -6 -6 -5 -5 -6 -6 -7 -6 -6 -7 -7 -6 -6 -5 -5 -5 -5 -5 -5 -5 -5 -6 -7 -8 -8 -8 -9 -9 -9 -8 -9 -9 -9 -9
-7 -8 -8 -8 -8 -7 -6 -7 -7 -6 -5 -7 -5 -5 -6 -6 -7 -7 -7 -6 -5 -7 -6 -6 -4 -5 -5 -5 -5 -5 -5 -6 -7 -8 -8 -9 -9 -9 -9 -8 -9 -9 -9 -9
-8 -9 -8 -8 -7 -7 -6 -7 -7 -7 -5 -6 -6 -5 -6 -6 -6 -6 -7 -7 -7 -7 -7 -7 -6 -4 -5 -6 -6 -6 -6 -7 -8 -8 -8 -9 -8 -8 -9 -9 -9 -9 -9 -9
-9 -9 -8 -9 -8 -8 -7 -7 -7 -7 -7 -6 -6 -5 -6 -6 -6 -6 -7 -6 -7 -7 -7 -7 -7 -6 -5 -6 -6 -6 -6 -7 -8 -8 -8 -8 -8 -9 -9 -9 -9 -9 -9 -9
-9 -9 -8 -8 -5 -7 -7 -7 -7 -7 -7 -7 -6 -6 -5 -6 -6 -6 -6 -6 -6 -6 -6 -6 -7 -7 -5 -6 -7 -6 -7 -7 -8 -8 -8 -9 -8 -8 -9 -9 -9 -9 -9 -9
-9 -9 -9 -9 -9 -8 -7 -7 -7 -7 -7 -7 -7 -7 -6 -5 -5 -6 -6 -6 -6 -6 -6 -7 -7 -6 -6 -6 -7 -7 -7 -8 -8 -8 -8 -8 -8 -9 -8 -8 -8 -9 -9 -9
-9 -9 -9 -9 -9 -9 -8 -7 -7 -7 -7 -7 -7 -7 -7 -6 -5 -5 -5 -5 -6 -6 -6 -6 -6 -6 -7 -7 -7 -7 -7 -8 -8 -8 -8 -8 -8 -8 -8 -8 -9 -9 -9 -9
-10 -10 -9 -10 -9 -9 -9 -7 -7 -7 -7 -7 -7 -7 -7 -7 -7 -7 -6 -5 -5 -6 -6 -7 -7 -7 -6 -6 -7 -7 -7 -8 -8 -8 -8 -8 -8 -8 -8 -8 -9 -9 -9 -9
Height
5908 5909 5912 5918 5917 5918 5923 5923 5923 5927 5927 5929 5927 5929 5932 5932 5932 5933 5932 5933 5934 5935 5935 5936 5936 5937 5938 5939 5940 5941 5940 5940 5942 5943 5942 5942 5941 5941 5940 5939 5938 5937 5934 5931
5904 5907 5913 5914 5917 5917 5917 5922 5925 5928 5932 5932 5929 5930 5935 5935 5934 5934 5934 5935 5935 5936 5937 5938 5938 5939 5941 5942 5943 5943 5943 5943 5944 5944 5942 5942 5942 5942 5940 5939 5938 5937 5935 5932
5900 5911 5910 5911 5913 5916 5919 5921 5923 5927 5928 5931 5932 5933 5935 5938 5936 5934 5934 5936 5936 5937 5938 5939 5940 5941 5942 5943 5944 5945 5944 5944 5945 5944 5942 5942 5943 5943 5942 5941 5940 5938 5934 5931
5898 5905 5906 5910 5912 5916 5916 5921 5924 5927 5930 5931 5931 5934 5935 5939 5936 5935 5936 5936 5937 5937 5940 5941 5941 5943 5945 5946 5946 5946 5945 5945 5945 5944 5944 5944 5944 5944 5943 5942 5940 5938 5933 5931
5895 5899 5903 5906 5910 5914 5918 5920 5925 5929 5930 5930 5931 5933 5937 5940 5938 5936 5937 5938 5938 5938 5942 5943 5942 5945 5947 5947 5947 5947 5946 5946 5947 5946 5946 5945 5945 5944 5944 5943 5941 5938 5936 5934
5890 5896 5898 5907 5911 5911 5915 5920 5919 5927 5927 5925 5929 5933 5935 5938 5941 5939 5937 5940 5941 5942 5945 5945 5945 5947 5948 5948 5949 5949 5949 5949 5948 5948 5947 5947 5946 5945 5944 5943 5942 5940 5938 5934
5881 5884 5892 5899 5903 5907 5908 5912 5916 5923 5921 5926 5930 5932 5933 5937 5941 5941 5940 5943 5943 5944 5947 5948 5948 5948 5949 5950 5950 5950 5950 5950 5950 5949 5948 5948 5947 5946 5945 5944 5942 5940 5937 5934
5874 5879 5884 5891 5897 5901 5903 5908 5911 5919 5924 5928 5931 5930 5934 5937 5940 5941 5940 5943 5945 5945 5947 5948 5948 5949 5950 5951 5952 5952 5952 5951 5951 5950 5949 5949 5948 5946 5945 5943 5941 5939 5937 5935
5867 5875 5884 5887 5895 5898 5901 5906 5916 5920 5921 5924 5929 5930 5932 5933 5938 5941 5940 5943 5944 5945 5947 5949 5949 5951 5952 5952 5952 5953 5952 5952 5951 5950 5949 5949 5949 5947 5944 5942 5940 5938 5936 5933
5863 5872 5878 5886 5890 5893 5895 5905 5911 5914 5916 5919 5923 5923 5928 5931 5936 5938 5941 5943 5944 5946 5947 5948 5949 5951 5952 5952 5953 5952 5951 5951 5950 5950 5949 5949 5948 5946 5944 5942 5938 5935 5933 5929
5855 5864 5874 5880 5877 5885 5892 5896 5902 5910 5914 5914 5918 5922 5924 5928 5931 5935 5938 5942 5944 5945 5946 5948 5948 5950 5951 5952 5951 5951 5951 5950 5949 5948 5948 5947 5946 5945 5943 5940 5937 5934 5931 5927
5847 5854 5862 5867 5877 5884 5887 5893 5897 5901 5907 5910 5914 5918 5920 5924 5927 5931 5935 5939 5942 5944 5945 5946 5948 5950 5951 5951 5950 5949 5948 5949 5948 5947 5947 5945 5944 5943 5941 5938 5935 5932 5929 5925
5837 5841 5853 5860 5870 5873 5877 5884 5890 5896 5903 5904 5908 5914 5918 5920 5922 5927 5931 5936 5940 5943 5944 5945 5946 5948 5949 5949 5949 5948 5947 5946 5946 5945 5945 5944 5942 5940 5938 5936 5933 5930 5927 5923
5828 5834 5841 5850 5861 5869 5872 5878 5885 5891 5895 5901 5904 5911 5914 5915 5916 5924 5926 5932 5937 5940 5942 5944 5946 5949 5948 5948 5947 5947 5946 5944 5943 5943 5942 5941 5940 5938 5936 5934 5931 5928 5924 5919
5816 5823 5834 5847 5856 5863 5868 5874 5878 5883 5890 5894 5903 5907 5910 5911 5915 5919 5924 5928 5933 5935 5938 5941 5943 5945 5947 5946 5945 5945 5944 5942 5941 5941 5940 5939 5937 5935 5933 5931 5927 5924 5920 5915
5808 5816 5828 5837 5848 5854 5859 5864 5872 5878 5883 5889 5898 5901 5906 5908 5912 5918 5922 5925 5927 5930 5934 5937 5937 5939 5940 5941 5942 5941 5941 5940 5939 5939 5938 5936 5933 5931 5929 5926 5923 5919 5915 5910
5796 5809 5817 5825 5841 5848 5847 5853 5860 5870 5877 5884 5890 5899 5900 5902 5911 5915 5919 5921 5925 5927 5928 5930 5931 5933 5935 5936 5937 5937 5937 5936 5935 5934 5933 5931 5928 5926 5924 5921 5917 5914 5910 5906
5786 5798 5810 5820 5832 5828 5840 5850 5856 5861 5870 5877 5886 5894 5897 5900 5906 5912 5912 5915 5917 5919 5919 5922 5924 5925 5928 5930 5931 5931 5931 5931 5930 5929 5927 5925 5923 5921 5919 5916 5912 5909 5905 5900
5779 5790 5797 5806 5818 5827 5832 5842 5849 5853 5859 5870 5879 5887 5892 5896 5900 5902 5906 5909 5912 5915 5916 5918 5922 5923 5924 5924 5925 5925 5925 5924 5923 5922 5921 5919 5918 5916 5914 5911 5908 5904 5899 5893
5775 5785 5793 5801 5808 5808 5828 5839 5845 5848 5852 5862 5869 5881 5885 5888 5890 5895 5899 5901 5905 5908 5910 5912 5916 5919 5920 5920 5920 5919 5917 5916 5916 5916 5915 5914 5913 5911 5908 5906 5902 5898 5892 5887
5766 5777 5781 5791 5801 5807 5823 5834 5838 5839 5852 5856 5861 5870 5877 5879 5885 5891 5893 5896 5900 5902 5904 5907 5908 5911 5914 5914 5912 5911 5910 5910 5910 5910 5909 5909 5907 5904 5902 5899 5896 5891 5885 5879
5761 5768 5773 5784 5793 5801 5816 5830 5828 5837 5846 5850 5856 5862 5867 5872 5877 5882 5886 5890 5893 5896 5898 5900 5902 5903 5907 5908 5907 5905 5904 5903 5904 5904 5903 5902 5900 5897 5894 5891 5887 5882 5877 5872
5758 5764 5771 5778 5788 5796 5812 5822 5822 5831 5838 5842 5847 5853 5860 5866 5870 5875 5880 5884 5886 5888 5891 5893 5896 5897 5899 5900 5900 5899 5898 5897 5897 5897 5896 5894 5893 5890 5886 5881 5877 5873 5869 5865
5748 5756 5765 5776 5782 5787 5801 5815 5818 5824 5830 5836 5841 5846 5852 5860 5866 5870 5874 5878 5880 5883 5885 5887 5888 5890 5892 5892 5890 5890 5889 5889 5889 5889 5888 5887 5885 5881 5876 5872 5868 5864 5861 5857
5735 5744 5754 5766 5774 5780 5789 5807 5809 5815 5820 5828 5834 5840 5845 5851 5860 5865 5869 5874 5875 5877 5879 5882 5883 5883 5883 5883 5882 5881 5881 5881 5881 5881 5881 5879 5876 5872 5867 5864 5860 5857 5853 5849
5728 5736 5746 5756 5769 5776 5782 5797 5801 5805 5810 5820 5827 5831 5838 5845 5850 5856 5861 5865 5867 5869 5871 5873 5874 5874 5874 5874 5874 5873 5873 5873 5873 5873 5873 5870 5868 5863 5859 5856 5852 5849 5846 5841
Wind_Speed
33 29 17 10 13 14 14 10 6 5 12 11 20 23 16 10 7 4 10 12 14 11 14 16 18 19 19 20 21 22 25 24 20 18 17 17 17 17 18 21 23 23 22 21
34 24 15 17 21 11 13 22 19 20 12 11 19 15 14 10 6 1 8 11 12 13 13 14 16 19 20 20 19 21 23 22 20 18 18 17 18 20 20 22 25 24 19 18
33 18 25 22 21 17 30 26 21 17 11 16 16 17 17 10 4 4 5 10 12 11 15 16 17 19 18 18 18 18 19 19 19 18 19 18 17 18 20 22 23 22 21 23
34 30 30 27 24 23 30 23 23 17 11 9 7 5 12 10 7 9 9 10 6 13 16 20 21 18 16 15 15 16 17 16 16 18 18 17 17 18 19 24 25 25 26 26
30 35 35 30 20 19 21 24 24 16 8 4 4 1 8 17 6 12 11 11 12 19 20 20 19 17 16 16 15 14 14 14 15 17 15 14 15 18 24 26 26 27 27 27
33 37 40 27 22 17 7 16 19 13 7 11 6 2 7 14 15 8 13 14 17 20 16 19 19 17 15 13 12 12 13 13 13 14 14 13 15 19 22 26 26 26 27 29
39 43 42 36 31 23 24 16 7 12 11 4 13 14 4 5 12 6 10 9 15 14 12 15 13 13 12 11 10 11 11 11 11 11 13 13 16 18 21 24 25 26 26 29
42 45 44 42 38 32 19 13 24 21 14 15 17 16 4 4 2 4 5 9 10 13 12 11 11 11 11 9 8 8 8 9 10 11 11 14 15 18 21 24 24 25 25 29
44 41 41 46 40 34 31 27 21 18 20 20 14 19 11 6 6 3 7 8 10 10 9 10 10 9 8 7 5 4 6 9 11 13 13 14 16 18 21 20 21 24 28 28
44 40 42 47 40 38 35 26 31 29 27 23 17 15 11 13 5 10 8 6 5 8 8 7 6 5 2 2 1 2 6 8 10 12 12 12 15 16 18 18 23 27 31 31
45 43 44 51 54 46 39 34 34 30 31 26 22 21 17 15 9 6 6 5 3 6 5 7 5 2 2 3 3 4 6 8 10 12 12 12 13 15 13 16 22 26 28 34
45 46 47 49 50 47 43 41 33 38 39 32 27 19 21 12 19 7 2 5 1 8 11 11 6 5 4 5 5 8 10 10 10 11 12 13 14 15 14 18 23 28 27 33
47 51 47 50 52 55 51 47 43 42 42 37 32 19 7 12 19 13 7 9 10 10 9 9 9 11 8 8 9 12 13 12 10 10 11 13 15 15 18 21 25 29 31 34
49 51 50 49 49 48 53 50 45 44 46 40 35 20 21 9 13 18 13 17 16 13 8 11 11 7 10 11 11 13 15 14 12 12 12 14 16 18 20 23 26 30 35 39
49 54 50 45 41 46 46 46 45 49 44 46 35 30 17 19 14 13 15 21 17 10 9 13 12 11 13 14 12 14 15 14 12 13 14 17 18 20 24 26 29 33 37 41
50 55 53 49 43 44 44 37 31 38 45 47 39 32 25 18 17 19 22 22 17 19 21 19 11 13 15 15 16 17 15 14 15 14 15 18 20 22 26 29 32 36 38 42
51 53 58 55 47 47 51 46 38 29 34 42 45 36 29 26 21 27 27 27 25 24 26 17 11 15 16 17 19 18 19 19 19 16 17 19 21 24 26 31 35 37 38 41
60 50 56 58 53 59 50 44 40 35 24 31 45 38 29 33 34 32 35 29 26 27 19 17 13 14 14 17 19 20 21 20 21 20 21 20 23 26 29 33 37 38 43 44
64 56 50 63 61 55 54 41 40 41 35 20 44 45 36 33 29 30 31 25 24 27 22 21 11 15 18 20 21 23 24 22 24 23 22 23 26 27 31 36 38 42 46 45
61 55 54 53 66 66 53 48 41 41 42 30 36 50 44 38 36 32 28 31 30 21 25 27 17 13 18 25 26 26 25 26 26 23 22 26 29 32 36 38 40 44 47 45
59 51 52 49 65 65 54 50 38 42 40 39 39 54 50 47 40 36 31 22 22 26 27 27 35 30 27 28 31 30 28 28 28 28 29 29 33 36 39 40 42 43 46 43
58 57 57 51 54 69 57 53 50 44 36 36 34 43 56 52 47 45 38 36 35 30 31 34 39 43 33 32 33 34 31 30 30 29 30 33 35 38 40 40 41 44 43 39
57 53 57 60 60 61 63 61 55 49 42 40 43 38 51 57 55 52 45 42 41 39 39 41 45 46 46 39 38 36 32 31 30 32 33 34 37 37 38 41 39 38 38 37
64 61 54 53 53 53 56 61 62 55 51 47 43 43 44 49 59 55 56 53 51 51 49 48 50 55 51 40 40 39 34 30 30 32 34 36 35 37 39 37 35 36 35 37
68 63 61 52 53 54 52 59 67 59 58 55 51 49 45 45 43 48 56 57 58 57 57 54 54 49 46 43 42 42 37 35 35 35 34 36 33 35 35 32 33 34 35 38
66 62 63 56 56 57 52 44 65 70 65 57 55 55 53 53 47 42 45 44 45 46 45 47 53 49 43 41 41 40 39 37 36 35 35 33 32 33 32 32 33 35 36 40
Wind_Direction
200 205 220 173 195 243 221 197 138 168 120 90 90 74 54 56 74 119 124 118 115 113 111 113 112 108 105 104 100 93 98 109 110 107 94 78 67 59 55 48 49 47 43 41
201 213 197 189 195 172 135 138 116 131 130 119 105 93 65 53 58 15 136 130 134 134 132 127 121 115 114 99 102 91 93 96 99 90 79 67 61 57 53 48 46 44 37 27
212 180 204 190 206 153 146 119 110 112 105 130 110 99 88 68 99 119 139 133 129 139 148 137 125 121 114 105 100 90 88 86 79 73 66 58 56 55 51 48 46 42 27 26
207 188 198 184 192 146 144 130 127 126 90 83 71 71 45 53 118 128 143 140 121 161 159 136 131 125 123 111 96 85 76 71 69 65 60 55 48 45 47 46 40 36 27 18
196 194 193 193 170 160 142 136 125 127 113 242 250 279 44 45 101 125 141 137 106 113 144 139 127 124 115 99 86 76 71 68 66 58 53 46 38 39 42 37 37 33 27 18
197 195 194 181 194 205 227 170 127 155 169 235 251 218 79 58 30 112 128 132 123 116 107 127 114 116 110 97 86 77 76 69 58 51 46 40 32 27 28 28 29 27 21 15
197 196 198 185 184 191 216 177 198 224 197 227 233 247 20 25 24 354 132 147 140 140 137 127 119 111 106 98 87 75 65 53 46 48 42 33 26 21 20 23 20 18 13 9
201 197 192 183 186 183 212 201 218 226 162 150 190 230 33 21 316 331 152 162 156 146 144 135 120 118 115 104 79 66 54 42 38 34 32 26 20 15 11 12 14 9 7 4
206 203 195 188 182 185 199 195 201 194 180 187 192 223 201 206 234 50 171 196 159 146 153 158 153 145 137 114 98 70 45 32 23 17 15 16 16 11 7 9 7 2 359 359
209 202 200 191 183 184 191 179 196 195 201 201 203 157 221 222 231 77 118 160 200 175 166 170 171 142 121 126 110 38 17 8 11 4 1 4 14 9 4 358 358 355 358 355
208 205 199 197 195 189 188 193 202 204 211 216 211 217 252 199 244 124 60 120 137 245 207 198 191 141 267 268 315 340 357 358 358 351 354 354 9 6 360 354 354 352 352 350
206 204 200 207 206 197 194 200 202 214 206 214 214 202 212 191 221 205 143 315 107 268 255 265 262 256 274 300 320 337 339 349 349 342 344 347 355 356 352 351 351 347 347 347
203 206 200 204 202 200 198 201 206 209 209 210 211 177 171 234 229 202 202 264 295 216 224 253 281 294 300 318 335 333 329 330 334 328 337 336 346 344 344 344 343 341 337 341
208 210 209 206 208 207 208 207 207 209 210 205 196 167 185 169 198 204 210 248 270 236 236 260 260 269 287 304 323 318 318 324 322 321 333 337 339 336 338 336 335 328 333 335
206 209 211 207 212 210 210 213 212 212 208 214 200 193 180 172 193 212 223 248 242 254 276 291 270 278 287 296 302 308 309 307 312 315 326 329 325 328 331 334 329 323 327 329
201 209 208 209 207 205 208 206 223 218 214 211 198 201 191 171 188 220 232 239 260 277 277 272 269 292 289 289 292 296 295 297 292 293 303 310 311 313 325 328 322 321 323 322
199 205 203 209 203 203 213 209 203 207 213 207 201 199 174 173 207 213 225 231 240 258 254 254 286 296 279 277 287 286 285 286 282 278 288 296 300 306 317 319 316 319 319 321
196 202 201 205 198 205 218 212 210 197 203 212 200 197 195 190 200 232 245 228 240 248 269 278 300 296 281 276 276 274 274 275 278 277 286 287 291 301 311 316 314 315 314 317
201 200 202 204 199 213 207 201 210 204 196 210 203 192 197 199 217 237 236 236 234 249 262 270 258 270 282 285 280 275 273 275 275 276 278 282 289 300 307 308 311 311 312 313
205 203 205 204 203 212 209 202 207 212 203 194 198 196 199 202 213 223 248 240 245 265 268 273 262 271 289 286 279 277 276 272 270 273 282 284 294 302 303 305 307 311 313 313
204 202 206 209 207 214 208 193 190 210 211 207 196 198 204 208 215 231 227 232 249 263 268 270 275 278 293 288 284 281 274 267 263 268 275 286 293 297 300 303 310 310 311 312
207 205 205 211 211 212 207 193 204 210 207 215 202 201 209 211 217 224 229 240 244 253 260 270 277 282 287 288 282 278 276 269 267 273 282 289 292 295 300 306 307 307 310 310
203 210 210 213 215 214 206 198 204 207 205 212 214 205 210 214 218 223 228 235 246 254 260 267 274 278 283 285 281 277 271 267 269 275 281 284 292 300 306 304 304 306 308 308
201 208 209 215 216 225 211 200 207 207 209 211 209 204 211 214 220 227 230 235 243 252 259 264 267 271 278 277 276 277 276 273 274 278 282 288 298 304 303 301 301 304 306 307
200 204 208 212 218 224 224 201 209 211 214 214 215 213 214 226 224 227 236 241 247 253 259 266 270 271 275 270 267 274 276 273 274 278 285 293 303 303 303 299 300 301 301 302
200 204 207 208 217 223 229 216 210 216 217 218 218 222 225 227 232 233 241 244 247 252 257 262 264 266 261 261 265 270 272 273 277 285 290 298 303 311 305 301 301 300 302 302